Regional Weather Roundup
Issued by NWS

Home | Current Version | Previous Version | Text Only | Print | Product List | Glossary On
Versions: 1 2 3 4 5 6 7 8 9 10 11 12 13 14 15 16 17 18 19 20 21 22 23 24 25 26 27 28 29 30 31 32 33 34 35 36 37 38 39 40 41 42 43 44 45 46 47 48 49 50
000
ASUS43 KLSX 281007
RWRMO

WEATHER SUMMARY FOR MISSOURI
NATIONAL WEATHER SERVICE SPRINGFIELD MO
500 AM CDT WED SEP 28 2016

NOTE: "FAIR" INDICATES FEW OR NO CLOUDS BELOW 12,000 FEET WITH NO
       SIGNIFICANT WEATHER AND/OR OBSTRUCTIONS TO VISIBILITY.
       CURRENT SKY AND/OR WEATHER CONDITIONS ARE NOT AVAILABLE FOR
       CHILLICOTHE AND FARMINGTON.

MOZ001>031-035>038-043-044-053-054-281100-
...NORTHERN AND WESTERN MISSOURI...

CITY           SKY/WX    TMP DP  RH WIND       PRES   REMARKS
KANSAS CTY INT CLEAR     57  52  83 NW9       29.89R
KANSAS C DTWN  CLEAR     60  56  86 CALM      29.87R
LEE`S SUMMIT   CLEAR     59  54  83 W5        29.87R
ST JOSEPH      CLEAR     53  50  89 N8        29.90R
CHILLICOTHE      N/A     57  48  72 N7        29.89R
KIRKSVILLE     PTCLDY    53  43  68 N7        29.87R

$$
MOZ066>068-077>081-088>096-101>105-281100-
...SOUTHWEST MISSOURI...

CITY           SKY/WX    TMP DP  RH WIND       PRES   REMARKS
SPRINGFIELD    CLEAR     61  48  62 SW9       29.89F
JOPLIN         CLEAR     65  49  56 SW15      29.91S
BRANSON        CLEAR     63  46  55 SW7       29.93F

$$
MOZ032>034-039>042-045>050-055>058-069>072-281100-
...CENTRAL MISSOURI...

CITY           SKY/WX    TMP DP  RH WIND       PRES   REMARKS
COLUMBIA       CLEAR     60  55  83 W7        29.83R
JEFFERSON CITY MOCLDY    60  55  83 CALM      29.83S
ROLLA          CLEAR     56  50  80 S9        29.84S
SEDALIA        PTCLDY    60  54  80 W5        29.86R
WHITEMAN AFB   CLEAR     58  58  98 W3        29.84S
OSAGE BEACH    CLEAR     60  53  77 W3        29.86S

$$
MOZ051-052-059>065-281100-
...EAST CENTRAL MISSOURI...

CITY           SKY/WX    TMP DP  RH WIND       PRES   REMARKS
ST LOUIS INTL  MOCLDY    64  53  67 W10       29.80R
SPIRIT OF STL  CLOUDY    61  54  77 W3        29.79S
ST CHARLES     PTCLDY    54  53  97 NW3       29.79S

$$
MOZ072>076-082>087-097>100-106>115-281100-
...SOUTH CENTRAL AND SOUTHEAST MISSOURI...

CITY           SKY/WX    TMP DP  RH WIND       PRES   REMARKS
CAPE GIRARDEAU CLEAR     58  51  78 SW6       29.84F
POPLAR BLUFF   CLEAR     56  52  86 SW3       29.87F FOG
WEST PLAINS    CLEAR     55  49  80 SW5       29.92F

$$


USA.gov is the U.S. government's official web portal to all federal, state and local government web resources and services.